星链-30364 (STARLINK-30364 )

导读

STARLINK-30364是美国于2023年9月1日发射的星链卫星,星链项目是太空探索技术公司打造的低轨卫星互联网星座计划。该卫星入轨后,为完善全球卫星互联网覆盖,助力偏远地区网络接入、海上及航空移动网络服务等领域发展,进一步扩展星链系统的服务能力与覆盖范围。

Basic Information
目录编号:
57741
目录名称:
STARLINK-30364
国际标识:
2023-131K
轨道中心:
EARTH
卫星名称:
星链-30364
卫星全名:
星链-30364 (STARLINK-30364 )
卫星状态:
在轨 (已飞行1106 天)
发射日期:
2023-09-01 UTC
国别 :
美国 (US)
星等 :
--
This satellite is enrolled in the Space Conjunction Data Service (SCDS) and the current flight risk assessment level is: High Risk
Orbit Information
数据来源 国际轨道数据 AOE轨道数据
星历时间 2026-09-11T13:15:07+0800
10小时前
查看轨道信息
2026-09-09T22:00:00+0800
2天前
查看轨道信息
半长轴 6861.117km 6861.193km
偏心率 0.0001201 0.000001
轨道倾角 43.000° 43.000°
近地点辐角 266.180° 277.488°
升交点赤经 204.435° 213.677°
平近点角 93.892° 77.858°
近地点 482.155km 483.049km
远地点 483.805km 483.063km
周期 94.265分钟 94.267分钟
每日圈数 15.276032 15.275779
Detailed Information
固有亮度:
5
最大亮度:
0.3
卫星平台:
Starlink v2.0 mini
覆盖范围:
全球
运营商:
太空探索技术公司
运营商所在国:
美国
制造商(研发单位):
太空探索技术公司
制造商所在国:
美国
使用方式:
暂无
Satellite Introduction
星链(Starlink)计划是由太空探索技术公司(SpaceX)提出的一个巨型低轨卫星互联网星座项目,计划在2019年至2024年间在太空搭建由约1.2万颗卫星组成的“星链”网络,其中1584颗将部署在地球上空550千米处的近地轨道,并从2020年开始工作。该卫星仍在工作。
2D Orbit Map
3D Orbit Map
Orbit Altitude Analysis Chart
Orbit Inclination Analysis Chart
Orbit Comprehensive Analysis Chart
View Comprehensive Chart
Conjunction Data List
Event ID Objects TCA Miss Dist (km) Collision Risk Probability Collision Risk Index (CRI) Action
CDM_260912-065505-774105-985521
2026-09-12T
06:55:13+0000
0.295 km
中距离
3.927103E-4 高风险 0.87
CDM_260912-082905-774105-985521
2026-09-12T
08:29:23+0000
0.660 km
远距离
6.584158E-5 中风险 0.71
CDM_260912-052105-774105-985521
2026-09-12T
05:21:04+0000
0.665 km
远距离
6.425225E-5 中风险 0.71
CDM_260912-100305-774105-985521
2026-09-12T
10:03:32+0000
1.158 km
极远距离
1.027768E-5 中风险 0.55
CDM_260912-034605-774105-985521
2026-09-12T
03:46:55+0000
1.288 km
极远距离
7.130064E-6 低风险 0.52
CDM_260913-061302-636605-774121
SIMSAT 2 (26366)
2026-09-13T
06:13:09+0000
1.409 km
极远距离
7.015543E-6 低风险 0.52
CDM_260913-220905-774105-985521
2026-09-13T
22:09:05+0000
1.575 km
极远距离
3.695524E-6 低风险 0.46
CDM_260912-113705-774105-985521
2026-09-12T
11:37:41+0000
1.634 km
极远距离
3.307181E-6 低风险 0.45
CDM_260912-021205-774105-985521
2026-09-12T
02:12:45+0000
1.976 km
极远距离
1.956885E-6 低风险 0.41
CDM_260913-203405-774105-985521
2026-09-13T
20:34:56+0000
2.016 km
极远距离
1.863737E-6 低风险 0.4
Miss Distance Evolution Trend with All Objects
Collision Probability Evolution Trend with All Objects